| time (UTC) | temp C | wind direction | speed KPH | gust KPH | rain 1hr cm | rain 24hr cm | rain mn cm | humidity % | barometer mb |
| 20260508151336 | 10 | 315 | 3.2 | 8.0 | 0.00 | 0.00 | 0.00 | 61 | 1022.6 |
| 20260508150336 | 10 | 293 | 1.6 | 3.2 | 0.00 | 0.00 | 0.00 | 63 | 1022.6 |
| 20260508145317 | 9 | 293 | 3.2 | 4.8 | 0.00 | 0.00 | 0.00 | 63 | 1022.8 |
| 20260508144316 | 9 | 293 | 3.2 | 6.4 | 0.00 | 0.00 | 0.00 | 64 | 1022.8 |
| 20260508143316 | 8 | 338 | 4.8 | 8.0 | 0.00 | 0.00 | 0.00 | 64 | 1022.6 |
| 20260508142316 | 8 | 315 | 3.2 | 3.2 | 0.00 | 0.00 | 0.00 | 65 | 1022.4 |
| 20260508141316 | 8 | 270 | 4.8 | 6.4 | 0.00 | 0.00 | 0.00 | 65 | 1022.3 |
| 20260508140317 | 8 | 315 | 3.2 | 4.8 | 0.00 | 0.00 | 0.00 | 65 | 1022.1 |
| 20260508135316 | 8 | 293 | 4.8 | 11.3 | 0.00 | 0.00 | 0.00 | 64 | 1022.0 |
| 20260508134316 | 8 | 293 | 3.2 | 4.8 | 0.00 | 0.00 | 0.00 | 65 | 1021.7 |
| 20260508133316 | 8 | 270 | 3.2 | 4.8 | 0.00 | 0.00 | 0.00 | 65 | 1021.4 |
| 20260508132316 | 8 | 293 | 1.6 | 3.2 | 0.00 | 0.00 | 0.00 | 64 | 1021.2 |
| 20260508131316 | 9 | 270 | 1.6 | 4.8 | 0.00 | 0.00 | 0.00 | 64 | 1021.0 |
| 20260508131116 | 9 | 270 | 1.6 | 3.2 | 0.00 | 0.00 | 0.00 | 64 | 1021.0 |
| 20260508130117 | 9 | 0.0 | 0.0 | 0.00 | 0.00 | 0.00 | 64 | 1020.9 | |
| 20260508125137 | 9 | 270 | 1.6 | 3.2 | 0.00 | 0.00 | 0.00 | 63 | 1020.9 |
| 20260508124117 | 9 | 0.0 | 1.6 | 0.00 | 0.00 | 0.00 | 63 | 1020.7 | |
| 20260508123117 | 10 | 270 | 1.6 | 3.2 | 0.00 | 0.00 | 0.00 | 63 | 1020.7 |
| 20260508122116 | 10 | 0.0 | 1.6 | 0.00 | 0.00 | 0.00 | 63 | 1020.6 | |
| 20260508121116 | 10 | 0.0 | 0.0 | 0.00 | 0.00 | 0.00 | 63 | 1020.6 | |
| 20260508120117 | 10 | 0.0 | 1.6 | 0.00 | 0.00 | 0.00 | 63 | 1020.5 | |
| 20260508115157 | 10 | 0.0 | 1.6 | 0.00 | 0.00 | 0.00 | 63 | 1020.3 | |
| 20260508114116 | 10 | 270 | 1.6 | 1.6 | 0.00 | 0.00 | 0.00 | 63 | 1020.2 |
| 20260508113116 | 10 | 270 | 1.6 | 1.6 | 0.00 | 0.00 | 0.00 | 62 | 1020.0 |
| 20260508112137 | 10 | 0.0 | 0.0 | 0.00 | 0.00 | 0.00 | 62 | 1019.9 | |
| 20260508111137 | 10 | 270 | 1.6 | 1.6 | 0.00 | 0.00 | 0.00 | 62 | 1019.9 |
| 20260508110136 | 10 | 270 | 1.6 | 3.2 | 0.00 | 0.00 | 0.00 | 62 | 1019.8 |
| 20260508105117 | 10 | 0.0 | 1.6 | 0.00 | 0.00 | 0.00 | 62 | 1019.7 | |
| 20260508104116 | 10 | 0.0 | 1.6 | 0.00 | 0.00 | 0.00 | 61 | 1019.5 | |
| 20260508103137 | 10 | 270 | 1.6 | 1.6 | 0.00 | 0.00 | 0.00 | 61 | 1019.5 |
| 20260508102116 | 10 | 0.0 | 1.6 | 0.00 | 0.00 | 0.00 | 60 | 1019.4 | |
| 20260508101116 | 10 | 270 | 1.6 | 1.6 | 0.00 | 0.00 | 0.00 | 60 | 1019.4 |
| 20260508100116 | 10 | 270 | 1.6 | 3.2 | 0.00 | 0.00 | 0.00 | 60 | 1019.3 |
| 20260508095116 | 10 | 270 | 1.6 | 3.2 | 0.00 | 0.00 | 0.00 | 59 | 1019.3 |
| 20260508094116 | 10 | 270 | 1.6 | 3.2 | 0.00 | 0.00 | 0.00 | 60 | 1019.2 |
| 20260508093137 | 10 | 0.0 | 1.6 | 0.00 | 0.00 | 0.00 | 59 | 1019.1 | |
| 20260508092116 | 10 | 0.0 | 0.0 | 0.00 | 0.00 | 0.00 | 58 | 1019.0 | |
| 20260508091116 | 11 | 270 | 1.6 | 1.6 | 0.00 | 0.00 | 0.00 | 58 | 1018.8 |
| 20260508090116 | 11 | 270 | 1.6 | 1.6 | 0.00 | 0.00 | 0.00 | 58 | 1018.8 |
| 20260508085136 | 11 | 270 | 1.6 | 1.6 | 0.00 | 0.00 | 0.00 | 57 | 1018.7 |
| 20260508084137 | 11 | 270 | 1.6 | 1.6 | 0.00 | 0.00 | 0.00 | 56 | 1018.6 |
| 20260508083116 | 11 | 0.0 | 1.6 | 0.00 | 0.00 | 0.00 | 55 | 1018.5 | |
| 20260508082116 | 11 | 270 | 1.6 | 1.6 | 0.00 | 0.00 | 0.00 | 54 | 1018.5 |
| 20260508081136 | 11 | 270 | 1.6 | 3.2 | 0.00 | 0.00 | 0.00 | 54 | 1018.5 |
| 20260508080116 | 12 | 270 | 1.6 | 3.2 | 0.00 | 0.00 | 0.00 | 54 | 1018.5 |
| 20260508075116 | 12 | 270 | 3.2 | 4.8 | 0.00 | 0.00 | 0.00 | 53 | 1018.6 |
| 20260508074116 | 12 | 270 | 1.6 | 3.2 | 0.00 | 0.00 | 0.00 | 53 | 1018.4 |
| 20260508073116 | 12 | 270 | 1.6 | 3.2 | 0.00 | 0.00 | 0.00 | 53 | 1018.5 |
| 20260508072115 | 12 | 270 | 4.8 | 6.4 | 0.00 | 0.00 | 0.00 | 53 | 1018.4 |
| 20260508071136 | 12 | 270 | 1.6 | 3.2 | 0.00 | 0.00 | 0.00 | 52 | 1018.4 |
| 20260508070116 | 12 | 270 | 3.2 | 3.2 | 0.00 | 0.00 | 0.00 | 52 | 1018.5 |
| 20260508065116 | 12 | 0.0 | 0.0 | 0.00 | 0.00 | 0.00 | 49 | 1018.4 | |
| 20260508064137 | 12 | 0.0 | 0.0 | 0.00 | 0.00 | 0.00 | 50 | 1018.3 | |
| 20260508063116 | 13 | 293 | 1.6 | 1.6 | 0.00 | 0.00 | 0.00 | 49 | 1018.3 |
| 20260508062116 | 13 | 0.0 | 1.6 | 0.00 | 0.00 | 0.00 | 47 | 1018.4 | |
| 20260508061116 | 13 | 0.0 | 0.0 | 0.00 | 0.00 | 0.00 | 46 | 1018.3 | |
| 20260508060137 | 14 | 270 | 3.2 | 4.8 | 0.00 | 0.00 | 0.00 | 45 | 1018.4 |
| 20260508055117 | 14 | 315 | 3.2 | 3.2 | 0.00 | 0.00 | 0.00 | 44 | 1018.3 |
| 20260508054137 | 15 | 293 | 3.2 | 4.8 | 0.00 | 0.00 | 0.00 | 43 | 1018.3 |
| 20260508053116 | 15 | 270 | 3.2 | 4.8 | 0.00 | 0.00 | 0.00 | 41 | 1018.4 |
| 20260508052116 | 15 | 293 | 3.2 | 3.2 | 0.00 | 0.00 | 0.00 | 40 | 1018.4 |
| 20260508051117 | 15 | 315 | 1.6 | 3.2 | 0.00 | 0.00 | 0.00 | 39 | 1018.3 |
| 20260508050116 | 15 | 315 | 1.6 | 3.2 | 0.00 | 0.00 | 0.00 | 39 | 1018.4 |
| 20260508045117 | 15 | 315 | 1.6 | 3.2 | 0.00 | 0.00 | 0.00 | 38 | 1018.4 |
| 20260508044117 | 15 | 315 | 3.2 | 4.8 | 0.00 | 0.00 | 0.00 | 38 | 1018.3 |
| 20260508043116 | 16 | 338 | 1.6 | 4.8 | 0.00 | 0.00 | 0.00 | 38 | 1018.3 |
| 20260508042116 | 16 | 338 | 3.2 | 4.8 | 0.00 | 0.00 | 0.00 | 37 | 1018.3 |
| 20260508041117 | 16 | 338 | 3.2 | 4.8 | 0.00 | 0.00 | 0.00 | 36 | 1018.3 |
| 20260508040116 | 16 | 0.0 | 0.0 | 0.00 | 0.00 | 0.00 | 37 | 1018.1 | |
| 20260508035137 | 16 | 315 | 1.6 | 1.6 | 0.00 | 0.00 | 0.00 | 36 | 1018.1 |
| 20260508034116 | 16 | 315 | 1.6 | 4.8 | 0.00 | 0.00 | 0.00 | 35 | 1018.0 |
| 20260508033136 | 17 | 315 | 1.6 | 3.2 | 0.00 | 0.00 | 0.00 | 35 | 1017.9 |
| 20260508032116 | 17 | 315 | 1.6 | 3.2 | 0.00 | 0.00 | 0.00 | 34 | 1017.8 |
| 20260508031116 | 17 | 338 | 3.2 | 4.8 | 0.00 | 0.00 | 0.00 | 35 | 1017.7 |
| 20260508030116 | 17 | 0 | 3.2 | 4.8 | 0.00 | 0.00 | 0.00 | 35 | 1017.7 |
| 20260508025116 | 17 | 0 | 4.8 | 6.4 | 0.00 | 0.00 | 0.00 | 35 | 1017.7 |
| 20260508024137 | 18 | 338 | 4.8 | 6.4 | 0.00 | 0.00 | 0.00 | 34 | 1017.9 |
| 20260508023116 | 18 | 0 | 1.6 | 1.6 | 0.00 | 0.00 | 0.00 | 34 | 1017.9 |
| 20260508022116 | 18 | 0.0 | 1.6 | 0.00 | 0.00 | 0.00 | 33 | 1017.8 | |
| 20260508021116 | 19 | 338 | 1.6 | 3.2 | 0.00 | 0.00 | 0.00 | 32 | 1017.9 |
| 20260508020136 | 19 | 293 | 3.2 | 4.8 | 0.00 | 0.00 | 0.00 | 30 | 1018.1 |
| 20260508015116 | 20 | 23 | 1.6 | 3.2 | 0.00 | 0.00 | 0.00 | 26 | 1018.1 |
| 20260508014115 | 20 | 338 | 3.2 | 4.8 | 0.00 | 0.00 | 0.00 | 25 | 1018.1 |
| 20260508013137 | 20 | 0 | 4.8 | 6.4 | 0.00 | 0.00 | 0.00 | 24 | 1018.2 |
| 20260508012136 | 20 | 315 | 3.2 | 6.4 | 0.00 | 0.00 | 0.00 | 23 | 1018.2 |
| 20260508011115 | 21 | 0.0 | 3.2 | 0.00 | 0.00 | 0.00 | 21 | 1018.3 | |
| 20260508010116 | 21 | 338 | 3.2 | 4.8 | 0.00 | 0.00 | 0.00 | 20 | 1018.4 |
| 20260508005156 | 21 | 0 | 6.4 | 8.0 | 0.00 | 0.00 | 0.00 | 20 | 1018.5 |
| 20260508004116 | 22 | 0 | 3.2 | 6.4 | 0.00 | 0.00 | 0.00 | 21 | 1018.6 |
| 20260508003116 | 22 | 293 | 4.8 | 6.4 | 0.00 | 0.00 | 0.00 | 22 | 1018.6 |
| 20260508002116 | 21 | 338 | 9.7 | 14.5 | 0.00 | 0.00 | 0.00 | 21 | 1018.7 |
| 20260508001116 | 21 | 0 | 6.4 | 12.9 | 0.00 | 0.00 | 0.00 | 21 | 1018.7 |
| 20260508000116 | 22 | 45 | 3.2 | 4.8 | 0.00 | 0.00 | 0.00 | 23 | 1018.8 |
| 20260507235115 | 21 | 23 | 1.6 | 3.2 | 0.00 | 0.00 | 0.00 | 24 | 1018.9 |
| 20260507234115 | 22 | 338 | 11.3 | 16.1 | 0.00 | 0.00 | 0.00 | 25 | 1019.2 |
| 20260507233115 | 22 | 338 | 3.2 | 8.0 | 0.00 | 0.00 | 0.00 | 24 | 1019.3 |
| 20260507232115 | 21 | 315 | 8.0 | 16.1 | 0.00 | 0.00 | 0.00 | 24 | 1019.3 |
| 20260507231115 | 22 | 338 | 6.4 | 9.7 | 0.00 | 0.00 | 0.00 | 25 | 1019.6 |
| 20260507230136 | 21 | 338 | 6.4 | 12.9 | 0.00 | 0.00 | 0.00 | 25 | 1019.7 |
| 20260507225116 | 21 | 248 | 6.4 | 14.5 | 0.00 | 0.00 | 0.00 | 23 | 1019.8 |
| 20260507224135 | 21 | 23 | 4.8 | 8.0 | 0.00 | 0.00 | 0.00 | 24 | 1019.8 |
| 20260507223118 | 21 | 293 | 8.0 | 14.5 | 0.00 | 0.00 | 0.00 | 24 | 1020.0 |
| 20260507222117 | 21 | 0 | 6.4 | 12.9 | 0.00 | 0.00 | 0.00 | 28 | 1020.0 |
| 20260507221118 | 21 | 293 | 6.4 | 11.3 | 0.00 | 0.00 | 0.00 | 25 | 1020.2 |
| 20260507220117 | 20 | 248 | 3.2 | 8.0 | 0.00 | 0.00 | 0.00 | 26 | 1020.1 |
| 20260507215117 | 20 | 270 | 9.7 | 16.1 | 0.00 | 0.00 | 0.00 | 28 | 1020.3 |
| 20260507214117 | 20 | 0 | 4.8 | 9.7 | 0.00 | 0.00 | 0.00 | 28 | 1020.4 |
| 20260507213115 | 19 | 338 | 4.8 | 8.0 | 0.00 | 0.00 | 0.00 | 33 | 1020.6 |
| 20260507212117 | 20 | 293 | 6.4 | 11.3 | 0.00 | 0.00 | 0.00 | 30 | 1020.6 |
| 20260507211117 | 19 | 338 | 1.6 | 4.8 | 0.00 | 0.00 | 0.00 | 33 | 1020.7 |
| 20260507210138 | 19 | 293 | 4.8 | 11.3 | 0.00 | 0.00 | 0.00 | 33 | 1020.8 |
| 20260507205117 | 19 | 270 | 4.8 | 6.4 | 0.00 | 0.00 | 0.00 | 34 | 1020.9 |
| 20260507204158 | 18 | 270 | 4.8 | 9.7 | 0.00 | 0.00 | 0.00 | 34 | 1021.0 |
| 20260507203138 | 19 | 113 | 1.6 | 3.2 | 0.00 | 0.00 | 0.00 | 34 | 1021.1 |
| 20260507202117 | 18 | 293 | 4.8 | 8.0 | 0.00 | 0.00 | 0.00 | 35 | 1021.2 |
| 20260507201117 | 19 | 315 | 6.4 | 12.9 | 0.00 | 0.00 | 0.00 | 34 | 1021.4 |
| 20260507200239 | 18 | 23 | 1.6 | 3.2 | 0.00 | 0.00 | 0.00 | 35 | 1021.4 |
| 20260507195138 | 18 | 293 | 1.6 | 4.8 | 0.00 | 0.00 | 0.00 | 34 | 1021.5 |
| 20260507194117 | 18 | 23 | 4.8 | 8.0 | 0.00 | 0.00 | 0.00 | 37 | 1021.7 |
| 20260507193118 | 18 | 338 | 6.4 | 12.9 | 0.00 | 0.00 | 0.00 | 39 | 1021.7 |
| 20260507192117 | 17 | 315 | 4.8 | 8.0 | 0.00 | 0.00 | 0.00 | 40 | 1021.7 |
| 20260507191117 | 18 | 180 | 3.2 | 6.4 | 0.00 | 0.00 | 0.00 | 37 | 1021.8 |
| 20260507190117 | 17 | 248 | 3.2 | 4.8 | 0.00 | 0.00 | 0.00 | 41 | 1021.9 |
| 20260507185118 | 17 | 293 | 4.8 | 11.3 | 0.00 | 0.00 | 0.00 | 42 | 1022.0 |
| 20260507184117 | 17 | 225 | 3.2 | 6.4 | 0.00 | 0.00 | 0.00 | 39 | 1022.0 |
| 20260507183117 | 17 | 248 | 3.2 | 6.4 | 0.00 | 0.00 | 0.00 | 41 | 1022.1 |
| 20260507182117 | 16 | 315 | 3.2 | 8.0 | 0.00 | 0.00 | 0.00 | 42 | 1022.2 |
| 20260507181117 | 16 | 293 | 6.4 | 11.3 | 0.00 | 0.00 | 0.00 | 44 | 1022.3 |
| 20260507180117 | 16 | 315 | 6.4 | 12.9 | 0.00 | 0.00 | 0.00 | 45 | 1022.3 |
| 20260507175117 | 15 | 45 | 3.2 | 4.8 | 0.00 | 0.00 | 0.00 | 46 | 1022.4 |
| 20260507174118 | 15 | 270 | 3.2 | 8.0 | 0.00 | 0.00 | 0.00 | 47 | 1022.3 |
| 20260507173117 | 15 | 315 | 6.4 | 12.9 | 0.00 | 0.00 | 0.00 | 48 | 1022.4 |
| 20260507172117 | 15 | 270 | 6.4 | 9.7 | 0.00 | 0.00 | 0.00 | 52 | 1022.3 |
| 20260507171117 | 13 | 293 | 6.4 | 11.3 | 0.00 | 0.00 | 0.00 | 52 | 1022.3 |
| 20260507170117 | 13 | 293 | 8.0 | 12.9 | 0.00 | 0.00 | 0.00 | 53 | 1022.3 |
| 20260507165117 | 12 | 315 | 6.4 | 11.3 | 0.00 | 0.00 | 0.00 | 55 | 1022.3 |
| 20260507164117 | 11 | 270 | 4.8 | 6.4 | 0.00 | 0.00 | 0.00 | 58 | 1022.3 |
| 20260507163117 | 11 | 293 | 6.4 | 9.7 | 0.00 | 0.00 | 0.00 | 56 | 1022.3 |
| 20260507162137 | 11 | 338 | 4.8 | 6.4 | 0.00 | 0.00 | 0.00 | 58 | 1022.2 |
| 20260507161116 | 11 | 315 | 4.8 | 6.4 | 0.00 | 0.00 | 0.00 | 59 | 1022.3 |
| 20260507160137 | 11 | 315 | 6.4 | 9.7 | 0.00 | 0.00 | 0.00 | 59 | 1022.3 |
| 20260507155117 | 10 | 338 | 3.2 | 4.8 | 0.00 | 0.00 | 0.00 | 60 | 1022.3 |
| 20260507154117 | 10 | 293 | 4.8 | 6.4 | 0.00 | 0.00 | 0.00 | 61 | 1022.4 |
| 20260507153117 | 10 | 293 | 4.8 | 6.4 | 0.00 | 0.00 | 0.00 | 61 | 1022.4 |
| 20260507152116 | 10 | 293 | 6.4 | 11.3 | 0.00 | 0.00 | 0.00 | 61 | 1022.4 |